Regional Weather Roundup
Issued by NWS Raleigh/Durham, NC

Home | Current Version | Previous Version | Text Only | Print | Product List | Glossary On
Versions: 1 2 3 4 5 6 7 8 9 10 11 12 13 14 15 16 17 18 19 20 21 22 23 24 25 26 27 28 29 30 31 32 33 34 35 36 37 38 39 40 41 42 43 44 45 46 47 48 49 50
000
ASUS42 KRAH 012110
RWRRAH
NORTH CAROLINA WEATHER ROUNDUP
NATIONAL WEATHER SERVICE RALEIGH NC
500 PM EDT TUE SEP 01 2015

NOTE: "FAIR" INDICATES FEW OR NO CLOUDS BELOW 12,000 FEET WITH NO
SIGNIFICANT WEATHER AND/OR OBSTRUCTIONS TO VISIBILITY.

NCZ001-053-055-056-065-067-012200-
WESTERN NORTH CAROLINA

CITY           SKY/WX    TMP DP  RH WIND       PRES   REMARKS
ASHEVILLE      PTSUNNY   83  61  47 S10       30.15F
JEFFERSON      CLOUDY    78  56  47 CALM      30.22S
MORGANTON      PTSUNNY   90  58  34 S3        30.14S
HICKORY        MOSUNNY   91  59  33 CALM      30.08F
RUTHERFORDTON  CLOUDY    89  63  42 E5        30.09F
MOUNT AIRY     PTSUNNY   88  67  49 SW3       30.11F
BOONE          PTSUNNY   78  59  52 SW3       30.22F
$$

NCZ021-022-025-041-071-084-088-012200-
CENTRAL NORTH CAROLINA

CITY           SKY/WX    TMP DP  RH WIND       PRES   REMARKS
CHARLOTTE      MOSUNNY   92  60  34 CALM      30.07F
GREENSBORO     CLOUDY    91  60  35 N5        30.07F
WINSTON-SALEM  MOSUNNY   89  61  38 CALM      30.09S
RALEIGH-DURHAM PTSUNNY   89  65  44 NE3       30.05F
FORT BRAGG     MOSUNNY   88  66  48 CALM      30.04S
FAYETTEVILLE   SUNNY     88  69  53 SE5       30.04F
BURLINGTON     MOSUNNY   88  66  48 CALM      30.05F
LAURINBURG     MOSUNNY   90  66  45 VRB3      30.05F
$$

NCZ011-015-027-028-043-044-047-080-103-012200-
NORTHEASTERN NORTH CAROLINA

CITY           SKY/WX    TMP DP  RH WIND       PRES   REMARKS
ROCKY MT-WILSO MOSUNNY   89  68  49 VRB5      30.04F
GREENVILLE     SUNNY     86  70  58 CALM      30.06S
WASHINGTON     MOSUNNY   84  71  64 W5        30.04S
ELIZABETH CITY SUNNY     84  74  71 E10       30.03S
MANTEO         MOSUNNY   81  72  76 NE7       30.04S
CAPE HATTERAS  CLOUDY    81  74  79 NE6       30.04R
$$

NCZ078-087-090-091-093-098-101-012200-
SOUTHEASTERN NORTH CAROLINA

CITY           SKY/WX    TMP DP  RH WIND       PRES   REMARKS
LUMBERTON      SUNNY     91  68  46 NW5       30.04F HX  95
GOLDSBORO      MOSUNNY   88  70  53 CALM      30.03F
KINSTON        SUNNY     86  68  54 N3        30.05F
KENANSVILLE      N/A     84  69  60 CALM      30.06S
NEW BERN       MOSUNNY   87  71  58 W7        30.05S
CHERRY POINT   MOSUNNY   86  70  58 W5        30.05S
BEAUFORT       MOSUNNY   83  74  74 SW10      30.04S
JACKSONVILLE   SUNNY     87  69  54 VRB5      30.04F
WILMINGTON     MOSUNNY   86  74  67 SE6       30.05S
$$



USA.gov is the U.S. government's official web portal to all federal, state and local government web resources and services.